Miscellaneous Local Product
Issued by NWS North Platte, NE

Home | Current Version | Previous Version | Graphics & Text | Print | Product List | Glossary On
Versions: 1 2 3 4 5 6 7 8 9 10 11 12 13 14 15 16 17 18 19 20 21 22 23 24 25 26 27 28 29 30 31 32 33 34 35 36 37 38 39 40 41 42 43 44 45 46 47 48 49 50
391
AXUS43 KLBF 162210
MISLBF


WESTERN AND NORTH CENTRAL NEBRASKA HOURLY WEATHER ROUNDUP
NATIONAL WEATHER SERVICE NORTH PLATTE NE
500 PM CDT WED AUG 16 2017

NOTE: "FAIR" INDICATES FEW OR NO CLOUDS BELOW 12,000 FEET WITH NO
SIGNIFICANT WEATHER AND/OR OBSTRUCTIONS TO VISIBILITY.

NOTE: STATIONS NOT REPORTING VARIABLES SUCH AS SKY/WEATHER OR
PRESSURE ARE PROVIDED BY RAWS AND APRS NETWORKS AND ARE NOT UNDER
NATIONAL WEATHER SERVICE QUALITY CONTROL.

...OBSERVATIONS IN AND NEAR THE EASTERN PANHANDLE OF NEBRASKA...

CITY           SKY/WX    TMP DP  RH WIND       PRES   REMARKS
PINE RIDGE     MOSUNNY   77  52  41 N5        30.00S
GORDON         FAIR      74  52  46 N13       30.01R
CHADRON        SUNNY     79  45  29 N9        30.01S
ALLIANCE       MOSUNNY   74  50  42 NW13G23   30.04R
SIDNEY         MOSUNNY   76  52  43 N14G21    30.07R
CRESCENT LAKE    N/A     70  57  62 N9          N/A
$$

...OBSERVATIONS IN NORTHERN NEBRASKA AND FAR SOUTHERN SOUTH DAKOTA...

CITY           SKY/WX    TMP DP  RH WIND       PRES   REMARKS
WINNER         CLOUDY    66  63  90 NW12      29.90S
VALENTINE      CLOUDY    73  58  59 N13       29.95S
THEDFORD       CLOUDY    68  60  75 N10       29.97F
AINSWORTH      CLOUDY    66  60  83 NW16G22   29.95R
O`NEILL        CLOUDY    65  64  96 NW13      29.86F
ORD            CLOUDY    68  64  87 NW15      29.89R
BROKEN BOW     LGT RAIN  66  63  90 N9        29.92F
HALSEY           N/A     63  62  97 NW6         N/A
BUTTE            N/A     62  60  94 NW12G21     N/A
CHAMBERS         N/A     70  64  80 N9          N/A
EWING            N/A     68  65  89 NW12G18     N/A
$$

...OBSERVATIONS IN SOUTHWEST NEBRASKA AND FAR NORTHEAST COLORADO...

CITY           SKY/WX    TMP DP  RH WIND       PRES   REMARKS
HOLYOKE        FAIR      77  54  44 N15       30.04R
IMPERIAL       CLOUDY    78  54  43 N17       30.00R
OGALLALA       PTSUNNY   73  58  60 N8G16     30.00S
NORTH PLATTE   CLOUDY    71  62  73 N13       29.97S
MCCOOK         CLOUDY    73  66  78 N16G25    29.95R
LEXINGTON      RAIN      71  61  69 N9        29.93R
STAPLETON        N/A     63  61  93 CALM        N/A
GOTHENBURG       N/A     67  59  74 NW13        N/A
CALLAWAY         N/A     65  63  93 N12         N/A
$$

...OBSERVATIONS IN CENTRAL LINCOLN COUNTY AREA...

CITY           SKY/WX    TMP DP  RH WIND       PRES   REMARKS
N.P. AIRPORT   CLOUDY    71  62  73 N13       29.97S
N.P. SOUTHEAST   N/A     70  60  70 N7          N/A
N.P. HILLCREST   N/A     69  61  75 N12         N/A
$$

...SOME OBSERVATIONS FROM AROUND THE REGION...

CITY           SKY/WX    TMP DP  RH WIND       PRES   REMARKS
DENVER         PTSUNNY   75  44  33 NW5       30.13S
LIMON          SUNNY     74  46  36 NW12G22   30.13R
ASPEN          CLOUDY    72  31  22 CALM      30.24S
LARAMIE        SUNNY     70  33  25 N16G29    30.20S
CASPER         SUNNY     76  30  18 E3        30.08F
CHEYENNE       SUNNY     72  36  26 NE12      30.15S
SCOTTSBLUFF    MOSUNNY   76  46  34 N10       30.04S
GRAND ISLAND   CLOUDY    76  65  68 NW16G24   29.85R
OMAHA          PTSUNNY   81  64  56 W16       29.76R
SIOUX FALLS    LGT RAIN  68  68 100 NW14      29.72F
PIERRE         CLOUDY    69  59  70 N13       29.88F
RAPID CITY     CLOUDY    80  47  31 NW13      29.99F
BISMARCK       CLOUDY    77  55  46 N9        29.91F
KANSAS CITY    PTSUNNY   83  72  69 W5        29.80F
HILL CITY      MOSUNNY   84  62  47 W10       29.90F
WICHITA        LGT RAIN  75  70  84 N8        29.82S
DODGE CITY     MOSUNNY   87  57  35 N14       29.92F
OKLAHOMA CITY  MOSUNNY   89  74  60 S16       29.84F HX  98
DALLAS         CLOUDY    95  73  48 S14       29.85F HX 104
AMARILLO       MOSUNNY   85  61  44 N8        30.01S
$$




USA.gov is the U.S. government's official web portal to all federal, state and local government web resources and services.